Flag for Germany Weather past 2 weeks in Ansbach, Bavaria, Germany

Now
68 °F

Heavy rain. Partly sunny.


Feels Like: 68 °F
Forecast: 62 / 72 °F
Wind: 5 mph from South

Location: Ansbach / Katterbach

Current Time: Jul 29, 2014 at 2:56:47 PM

Latest Report: Jul 29, 2014 at 2:01 PM


Visibility: 2 mi

Pressure: 29.80 "Hg

Humidity: 88%

Dew point: 64 °F

Location of AnsbachLocation

Historic Weather in Ansbach — Graph

°F

Ansbach temperature yesterday

Maximum temperature yesterday: 78 °F (at 5:58 PM)
Minimum temperature yesterday: 57 °F (at 5:52 AM)
Average temperature yesterday: 67 °F

Past Weeks' High & Low Weather Summary

 TemperatureHumidityPressure
High87 °F (Jul 19, 5:58 PM)100% (Jul 21, 5:58 AM)30.21 "Hg (Jul 21, 5:58 AM)
Low55 °F (Jul 16, 4:58 AM)29% (Jul 19, 4:58 PM)29.78 "Hg (Jul 29, 6:58 AM)
Average69 °F68%29.98 "Hg
* Reported Jul 14 1:01 PM — Jul 29 1:51 PM, Ansbach, Weather by CustomWeather, © 2014

Note: Actual official high and low records may vary slightly from our data, if they occured in-between our weather recording intervals... More about our weather records

Advertising

Ansbach weather history for previous 24 hours

 ConditionsComfort  
Time TempWeatherWind HumidityBarometerVisibility
1:51 PM
Jul 29
72 °FLight rain. Broken clouds.9 mph73%29.79 "HgN/A
12:58 PM73 °FScattered clouds.6 mph65%29.78 "HgN/A
11:58 AM72 °FScattered clouds.5 mph73%29.78 "HgN/A
10:58 AM69 °FScattered clouds.5 mph83%29.80 "HgN/A
10:01 AM66 °FPartly sunny.3 mph88%29.81 "HgN/A
9:50 AM66 °FPartly sunny.2 mph88%29.81 "HgN/A
8:58 AM64 °FMostly cloudy.2 mph98%29.80 "HgN/A
7:58 AM62 °FFog.1 mph100%29.80 "Hg3 mi
6:58 AM61 °FFog.2 mph100%29.78 "Hg0 mi
6:01 AM61 °FFog.2 mph100%29.80 "Hg0 mi
5:03 AM61 °FFog.3 mph100%29.81 "Hg2 mi
4:58 AM61 °FFog.1 mph99%29.79 "Hg3 mi
4:00 AM61 °FFog.2 mph100%29.82 "Hg2 mi
3:58 AM62 °FFog.2 mph98%29.80 "Hg2 mi
2:58 AM62 °FPassing clouds.2 mph98%29.81 "HgN/A
1:58 AM64 °FPassing clouds.3 mph94%29.80 "HgN/A
12:58 AM64 °FPassing clouds.1 mph94%29.80 "HgN/A
11:58 PM
Jul 28
64 °FClear.6 mph94%29.80 "HgN/A
10:58 PM66 °FClear.6 mph83%29.81 "HgN/A
9:58 PM65 °FSunny.5 mph82%29.81 "HgN/A
8:58 PM68 °FPartly sunny.9 mph78%29.81 "HgN/A
7:58 PM68 °FLight rain. Partly sunny.3 mph78%29.83 "Hg6 mi
7:49 PM68 °FHeavy rain. Mostly cloudy.5 mph78%29.84 "Hg3 mi
6:58 PM78 °FPassing clouds.8 mph59%29.80 "HgN/A
5:58 PM78 °FSunny.6 mph54%29.80 "HgN/A
4:58 PM77 °FScattered clouds.5 mph56%29.83 "HgN/A
3:58 PM78 °FPassing clouds.6 mph59%29.83 "HgN/A
2:58 PM76 °FPartly sunny.7 mph63%29.86 "HgN/A
Weather by CustomWeather, © 2014

See weather overviewHow to use our weather pages